Location: Newark
(57.1691°N, 93.4410°E)
Time: 07:37:53
(UTC+00:00)

Envisat - Visible Passes

Search period start: 23 September 2020 00:00
Search period end: 03 October 2020 00:00
Orbit: 764 x 766 km, 98.1° (Epoch: 23 September)

Date Brightness Start Highest point End Pass type
(mag) Time Alt. Az. Time Alt. Az. Time Alt. Az.
23 Sep 6.6 12:46:30 10° WSW 12:48:34 12° W 12:50:38 10° NW visible
24 Sep 6.2 22:28:00 10° NE 22:31:03 16° E 22:34:05 10° ESE visible
26 Sep 6.3 12:34:09 10° WSW 12:37:01 15° W 12:39:53 10° NW visible
26 Sep 5.8 22:52:46 10° NE 22:56:51 24° E 23:00:54 10° SE visible
27 Sep 6.4 22:17:08 10° NE 22:19:30 13° E 22:21:51 10° ESE visible
29 Sep 6.2 12:22:04 10° SW 12:25:28 18° W 12:28:53 10° NW visible
29 Sep 6.0 22:41:37 10° NE 22:45:21 20° E 22:49:02 10° SE visible
30 Sep 6.7 22:06:43 10° ENE 22:07:55 11° ENE 22:09:08 10° E visible
01 Oct 6.6 12:49:40 10° W 12:51:21 11° W 12:53:02 10° WNW visible
01 Oct 5.4 23:06:37 10° NNE 23:11:06 30° E 23:15:32 10° SSE visible
02 Oct 6.0 12:10:08 10° SW 12:13:57 21° W 12:17:48 10° NW visible
02 Oct 6.2 22:30:34 10° NE 22:33:49 17° E 22:37:04 10° SE visible
